Location: Newark
(21.1200°N, 73.4000°E)
Time: 13:50:39
(UTC+00:00)

Explorer 11/Cluster Stage 4 - Pass Details

Date: 23 January 2020
Orbit: 467 x 1259 km, 28.8° (Epoch: 22 February)

Event Time Altitude Azimuth Distance (km) Brightness Sun altitude
Rises 12:25:24 0° 285° (WNW) 4,003 11.1 4.6°
Reaches altitude 10° 12:28:36 10° 292° (WNW) 2,939 10.3 3.9°
Maximum altitude 12:35:23 43° 2° (N) 1,300 7.6 2.5°
Drops below altitude 10° 12:40:54 10° 73° (ENE) 2,397 8.4 1.3°
Sets 12:43:17 0° 81° (E) 3,202 9.0 0.7°
